Luverne, MN

7:22 PM CDT on April 29, 2017 (GMT -0500)
Luverne

Weather History for KLYV - May, 2013

Change the Weather History Date:

Thursday, May 2, 2013

  Actual Average (KPQN) Record (KPQN)
Temperature  
Mean Temperature 42 °F -  
Max Temperature 50 °F 62 °F 78 °F (2015)
Min Temperature 33 °F 41 °F 24 °F (2002)
Degree Days  
Heating Degree Days 24    
Moisture  
Dew Point 25 °F    
Average Humidity 56    
Maximum Humidity 75    
Minimum Humidity 28    
Precipitation  
Precipitation 0.00 in - - ()
Sea Level Pressure  
Sea Level Pressure 30.52 in    
Wind  
Wind Speed 15 mph (North)    
Max Wind Speed 24 mph    
Max Gust Speed 33 mph    
Visibility 10 miles    
Events      
Averages and records for this station are not official NWS values.
T = Trace of Precipitation, MM = Missing Value Source: NWS Daily Summary

Daily Weather History Graph

Daily Weather History Graph

Search for Another Location

Airport or City:

Trip Planner

Search our weather history database for the weather conditions in past years. The results will help you decide how hot, cold, wet, or windy it might be!

Date:

Astronomy

May. 02, 2013 Rise Set
Actual Time 6:15 AM CDT 8:28 PM CDT
Civil Twilight 5:44 AM CDT 9:00 PM CDT
Nautical Twilight 5:05 AM CDT 9:39 PM CDT
Astronomical Twilight 4:21 AM CDT 10:23 PM CDT
Moon 2:17 AM CDT (5/2) 1:06 PM CDT (5/2)
Length of Visible Light 15h 16m
Length of Day
14h 13m
Waning Gibbous, 47% of the Moon is Illuminated
May 2
Waning Gibbous
May 9
New
May 17
First Quarter
May 24
Full
May 31
Last Quarter

Hourly Weather History & Observations

Time (CDT) Temp. Windchill Dew Point Humidity Pressure Visibility Wind Dir Wind Speed Gust Speed Precip Events Conditions
12:13 AM 37.4 °F 28.5 °F 28.4 °F 70% 30.48 in 10.0 mi North 15.0 mph 24.2 mph N/A   Clear
12:33 AM 37.4 °F 28.9 °F 28.4 °F 70% 30.49 in 10.0 mi NNE 13.8 mph 26.5 mph N/A   Clear
12:54 AM 37.4 °F 27.5 °F 26.6 °F 65% 30.50 in 10.0 mi North 18.4 mph 24.2 mph N/A   Scattered Clouds
1:14 AM 37.4 °F 27.8 °F 26.6 °F 65% 30.52 in 10.0 mi North 17.3 mph 23.0 mph N/A   Mostly Cloudy
1:33 AM 37.4 °F 28.5 °F 26.6 °F 65% 30.53 in 10.0 mi North 15.0 mph 21.9 mph N/A   Overcast
1:54 AM 35.6 °F 25.5 °F 26.6 °F 70% 30.53 in 10.0 mi NNE 17.3 mph 21.9 mph N/A   Overcast
2:14 AM 35.6 °F 25.5 °F 26.6 °F 70% 30.52 in 10.0 mi NNE 17.3 mph 24.2 mph N/A   Overcast
2:33 AM 35.6 °F 26.6 °F 26.6 °F 70% 30.51 in 10.0 mi NNE 13.8 mph 24.2 mph N/A   Overcast
2:54 AM 35.6 °F 25.9 °F 24.8 °F 65% 30.52 in 10.0 mi NNE 16.1 mph 25.3 mph N/A   Overcast
3:14 AM 35.6 °F 26.2 °F 26.6 °F 70% 30.53 in 10.0 mi NNE 15.0 mph 21.9 mph N/A   Overcast
3:34 AM 35.6 °F 27.5 °F 26.6 °F 70% 30.53 in 10.0 mi NNE 11.5 mph 21.9 mph N/A   Overcast
3:53 AM 35.6 °F 26.6 °F 24.8 °F 65% 30.52 in 10.0 mi NNE 13.8 mph 25.3 mph N/A   Overcast
4:14 AM 35.6 °F 24.2 °F 24.8 °F 65% 30.51 in 10.0 mi NNE 21.9 mph 26.5 mph N/A   Overcast
4:34 AM 35.6 °F 25.9 °F 24.8 °F 65% 30.53 in 10.0 mi NNE 16.1 mph 24.2 mph N/A   Mostly Cloudy
4:53 AM 35.6 °F 26.6 °F 24.8 °F 65% 30.54 in 10.0 mi NNE 13.8 mph 21.9 mph N/A   Overcast
5:14 AM 35.6 °F 27.5 °F 26.6 °F 70% 30.53 in 10.0 mi NNE 11.5 mph 18.4 mph N/A   Overcast
5:34 AM 33.8 °F 24.3 °F 26.6 °F 75% 30.54 in 10.0 mi NNE 13.8 mph 20.7 mph N/A   Mostly Cloudy
5:53 AM 33.8 °F 25.3 °F 26.6 °F 75% 30.55 in 10.0 mi NNE 11.5 mph 18.4 mph N/A   Clear
6:14 AM 33.8 °F 26.4 °F 26.6 °F 75% 30.56 in 10.0 mi NNE 9.2 mph 16.1 mph N/A   Clear
6:34 AM 33.8 °F 25.3 °F 26.6 °F 75% 30.56 in 10.0 mi NNE 11.5 mph 16.1 mph N/A   Clear
6:53 AM 33.8 °F 25.8 °F 26.6 °F 75% 30.57 in 10.0 mi NNE 10.4 mph 16.1 mph N/A   Clear
7:14 AM 33.8 °F 25.3 °F 26.6 °F 75% 30.57 in 10.0 mi NNE 11.5 mph - N/A   Scattered Clouds
7:33 AM 35.6 °F 28.0 °F 26.6 °F 70% 30.57 in 10.0 mi NNE 10.4 mph 18.4 mph N/A   Scattered Clouds
7:54 AM 35.6 °F 26.6 °F 24.8 °F 65% 30.58 in 10.0 mi North 13.8 mph 19.6 mph N/A   Scattered Clouds
8:14 AM 35.6 °F 27.5 °F 24.8 °F 65% 30.60 in 10.0 mi North 11.5 mph 17.3 mph N/A   Clear
8:33 AM 35.6 °F 28.6 °F 24.8 °F 65% 30.60 in 10.0 mi North 9.2 mph - N/A   Clear
8:54 AM 35.6 °F 27.5 °F 24.8 °F 65% 30.61 in 10.0 mi North 11.5 mph 18.4 mph N/A   Scattered Clouds
9:14 AM 37.4 °F 27.8 °F 26.6 °F 65% 30.61 in 10.0 mi North 17.3 mph 20.7 mph N/A   Scattered Clouds
9:33 AM 37.4 °F 28.2 °F 24.8 °F 60% 30.60 in 10.0 mi North 16.1 mph 23.0 mph N/A   Clear
9:54 AM 37.4 °F 27.8 °F 26.6 °F 65% 30.60 in 10.0 mi North 17.3 mph 21.9 mph N/A   Clear
10:13 AM 37.4 °F 28.5 °F 26.6 °F 65% 30.60 in 10.0 mi North 15.0 mph 21.9 mph N/A   Clear
10:34 AM 37.4 °F 28.2 °F 26.6 °F 65% 30.60 in 10.0 mi North 16.1 mph 25.3 mph N/A   Clear
10:53 AM 41.0 °F 31.1 °F 26.6 °F 57% 30.60 in 10.0 mi North 23.0 mph 26.5 mph N/A   Clear
11:13 AM 41.0 °F 31.4 °F 26.6 °F 57% 30.59 in 10.0 mi North 21.9 mph 29.9 mph N/A   Clear
11:34 AM 41.0 °F 31.9 °F 26.6 °F 57% 30.59 in 10.0 mi North 19.6 mph 27.6 mph N/A   Clear
11:53 AM 42.8 °F 34.8 °F 26.6 °F 53% 30.58 in 10.0 mi North 17.3 mph 32.2 mph N/A   Clear
12:14 PM 42.8 °F 33.5 °F 26.6 °F 53% 30.57 in 10.0 mi North 23.0 mph 27.6 mph N/A   Clear
12:34 PM 44.6 °F 35.7 °F 26.6 °F 49% 30.56 in 10.0 mi North 24.2 mph 31.1 mph N/A   Clear
12:53 PM 44.6 °F 36.6 °F 23.0 °F 43% 30.56 in 10.0 mi North 19.6 mph 29.9 mph N/A   Clear
1:14 PM 44.6 °F 36.1 °F 24.8 °F 46% 30.55 in 10.0 mi North 21.9 mph 26.5 mph N/A   Clear
1:33 PM 46.4 °F 39.5 °F 24.8 °F 43% 30.54 in 10.0 mi North 17.3 mph 27.6 mph N/A   Clear
1:54 PM 46.4 °F 38.5 °F 23.0 °F 40% 30.53 in 10.0 mi North 21.9 mph 27.6 mph N/A   Clear
2:13 PM 46.4 °F 39.2 °F 23.0 °F 40% 30.52 in 10.0 mi North 18.4 mph 32.2 mph N/A   Clear
2:33 PM 48.2 °F - 21.2 °F 34% 30.52 in 10.0 mi North 18.4 mph 28.8 mph N/A   Clear
2:54 PM 50.0 °F - 21.2 °F 32% 30.51 in 10.0 mi North 23.0 mph 32.2 mph N/A   Clear
3:13 PM 50.0 °F - 19.4 °F 30% 30.50 in 10.0 mi North 24.2 mph 33.4 mph N/A   Clear
3:33 PM 50.0 °F - 19.4 °F 30% 30.50 in 10.0 mi North 17.3 mph 29.9 mph N/A   Clear
3:54 PM 50.0 °F - 19.4 °F 30% 30.49 in 10.0 mi North 20.7 mph 31.1 mph N/A   Clear
4:13 PM 50.0 °F - 17.6 °F 28% 30.48 in 10.0 mi North 21.9 mph 28.8 mph N/A   Clear
4:33 PM 50.0 °F - 17.6 °F 28% 30.47 in 10.0 mi North 23.0 mph 28.8 mph N/A   Clear
4:54 PM 50.0 °F - 19.4 °F 30% 30.46 in 10.0 mi North 19.6 mph 26.5 mph N/A   Clear
5:14 PM 50.0 °F - 19.4 °F 30% 30.47 in 10.0 mi North 16.1 mph 25.3 mph N/A   Clear
5:33 PM 50.0 °F - 21.2 °F 32% 30.47 in 10.0 mi NNE 18.4 mph 25.3 mph N/A   Clear
5:54 PM 48.2 °F - 19.4 °F 32% 30.47 in 10.0 mi NNE 18.4 mph 26.5 mph N/A   Clear
6:14 PM 46.4 °F 40.1 °F 21.2 °F 37% 30.46 in 10.0 mi North 15.0 mph 23.0 mph N/A   Clear
6:33 PM 46.4 °F 40.1 °F 21.2 °F 37% 30.46 in 10.0 mi North 15.0 mph 26.5 mph N/A   Clear
6:54 PM 46.4 °F 40.1 °F 21.2 °F 37% 30.45 in 10.0 mi North 15.0 mph 24.2 mph N/A   Clear
7:14 PM 46.4 °F 39.2 °F 21.2 °F 37% 30.45 in 10.0 mi North 18.4 mph 24.2 mph N/A   Clear
7:34 PM 44.6 °F 37.8 °F 21.2 °F 39% 30.45 in 10.0 mi North 15.0 mph 20.7 mph N/A   Clear
7:54 PM 44.6 °F 38.1 °F 23.0 °F 43% 30.45 in 10.0 mi North 13.8 mph 21.9 mph N/A   Clear
8:13 PM 42.8 °F 35.8 °F 23.0 °F 46% 30.45 in 10.0 mi North 13.8 mph - N/A   Clear
8:34 PM 42.8 °F 35.8 °F 23.0 °F 46% 30.46 in 10.0 mi North 13.8 mph 19.6 mph N/A   Clear
8:53 PM 41.0 °F 35.8 °F 24.8 °F 53% 30.46 in 10.0 mi NNE 8.1 mph 18.4 mph N/A   Clear
9:14 PM 41.0 °F 34.3 °F 26.6 °F 57% 30.47 in 10.0 mi North 11.5 mph 16.1 mph N/A   Clear
9:34 PM 39.2 °F 32.5 °F 26.6 °F 61% 30.47 in 10.0 mi North 10.4 mph - N/A   Clear
9:53 PM 37.4 °F 30.8 °F 26.6 °F 65% 30.47 in 10.0 mi North 9.2 mph - N/A   Clear
10:14 PM 37.4 °F 30.8 °F 26.6 °F 65% 30.47 in 10.0 mi North 9.2 mph - N/A   Clear
10:34 PM 37.4 °F 32.1 °F 26.6 °F 65% 30.46 in 10.0 mi NNE 6.9 mph - N/A   Clear
10:53 PM 35.6 °F 29.9 °F 26.6 °F 70% 30.46 in 10.0 mi NNE 6.9 mph - N/A   Clear
11:14 PM 35.6 °F 29.2 °F 26.6 °F 70% 30.45 in 10.0 mi North 8.1 mph - N/A   Clear
11:34 PM 35.6 °F 28.0 °F 26.6 °F 70% 30.45 in 10.0 mi North 10.4 mph - N/A   Clear
11:53 PM 33.8 °F 26.4 °F 26.6 °F 75% 30.44 in 10.0 mi North 9.2 mph - N/A   Clear